Change the Weather History Date:

Wednesday, May 1, 2013

  Actual Average Record
Temperature  
Mean Temperature 53 °F -  
Max Temperature 76 °F 55 °F 80 °F (2004)
Min Temperature 31 °F 31 °F 25 °F (2003)
Degree Days  
Heating Degree Days 12    
Growing Degree Days 3 (Base 50)    
Moisture  
Dew Point 37 °F    
Average Humidity 64    
Maximum Humidity 100    
Minimum Humidity 23    
Precipitation  
Precipitation 0.07 in - - ()
Sea Level Pressure  
Sea Level Pressure 30.41 in    
Wind  
Wind Speed 1 mph (North)    
Max Wind Speed 5 mph    
Max Gust Speed -    
Averages and records for this station are not official NWS values.
T = Trace of Precipitation, MM = Missing Value Source: NWS Daily Summary

Daily Weather History Graph

Daily Weather History Graph

Search for Another Location

Airport or City:

Trip Planner

Search our weather history database for the weather conditions in past years. The results will help you decide how hot, cold, wet, or windy it might be!

Date:

Astronomy

May. 01, 2013 Rise Set
Actual Time 5:23 AM EDT 7:48 PM EDT
Civil Twilight 4:49 AM EDT 8:21 PM EDT
Nautical Twilight 4:07 AM EDT 9:04 PM EDT
Astronomical Twilight 3:19 AM EDT 9:52 PM EDT
Moon 12:56 AM EDT (5/1) 10:57 AM EDT (5/1)
Length of Visible Light 15h 32m
Length of Day
14h 24m
Waning Gibbous, 59% of the Moon is Illuminated
May 1
Waning Gibbous
May 2
Last Quarter
May 9
New
May 18
First Quarter
May 25
Full

Hourly Weather History & Observations

Time (EDT) Temp. Dew Point Humidity Pressure Visibility Wind Dir Wind Speed Gust Speed Precip Events Conditions
12:25 AM 42.3 °F 33.4 °F 71% 30.31 in - Calm Calm - 0.00 in   Unknown
1:25 AM 38.3 °F 33.4 °F 83% 30.33 in - Calm Calm - N/A   Unknown
2:25 AM 35.8 °F 32.0 °F 86% 30.35 in - Calm Calm - N/A   Unknown
3:25 AM 33.6 °F 30.2 °F 87% 30.38 in - Calm Calm - 0.00 in   Unknown
4:25 AM 32.9 °F 32.2 °F 97% 30.40 in - Calm Calm - N/A   Unknown
5:25 AM 31.3 °F 31.8 °F 100% 30.43 in - Calm Calm - N/A   Unknown
6:25 AM 33.4 °F 31.1 °F 91% 30.45 in - Calm Calm - N/A   Unknown
7:25 AM 39.7 °F 33.6 °F 79% 30.47 in - Calm Calm - 0.01 in   Unknown
8:25 AM 44.2 °F 37.2 °F 76% 30.48 in - Calm Calm - N/A   Unknown
9:25 AM 51.6 °F 38.5 °F 61% 30.48 in - Variable 2.3 mph - N/A   Unknown
10:25 AM 58.1 °F 41.0 °F 53% 30.48 in - Calm Calm - N/A   Unknown
11:25 AM 64.2 °F 40.6 °F 42% 30.47 in - Variable 2.3 mph - N/A   Unknown
12:25 PM 69.8 °F 40.8 °F 35% 30.45 in - Variable 4.6 mph - N/A   Unknown
1:25 PM 72.7 °F 34.2 °F 24% 30.43 in - Variable 4.6 mph - 0.02 in   Unknown
2:25 PM 75.0 °F 34.5 °F 23% 30.41 in - Variable 3.5 mph - 0.00 in   Unknown
3:25 PM 72.7 °F 36.5 °F 27% 30.40 in - Variable 4.6 mph - 0.00 in   Unknown
4:25 PM 73.2 °F 34.7 °F 24% 30.39 in - Calm Calm - N/A   Unknown
5:25 PM 73.0 °F 33.4 °F 23% 30.38 in - Variable 3.5 mph - 0.01 in   Unknown
7:25 PM 57.7 °F 44.8 °F 62% 30.39 in - Calm Calm - 0.03 in   Unknown
8:25 PM 52.9 °F 44.2 °F 72% 30.39 in - Calm Calm - N/A   Unknown
9:25 PM 50.4 °F 42.3 °F 74% 30.40 in - Calm Calm - 0.00 in   Unknown
10:25 PM 45.9 °F 41.7 °F 85% 30.40 in - Calm Calm - N/A   Unknown
11:25 PM 42.6 °F 39.7 °F 90% 30.40 in - Calm Calm - 0.00 in   Unknown